Theta_e
317 321 321 321 322 320 318 315 314 315 316 317 318 320 322 321 321 319 318 320 317 316 320 320 318 318 318 318 317 315 314 315 315 314 311 310 309 307 306 305 303 303 302 301 300 300 299 300 300 300 300 300 301 302 304 305 305 306 308 308 308 310 312 315 317 318 319 319 320 320 321 321 322 322 323 323 324 324 324 324 324 324 324 324 324 324
316 320 322 323 321 319 317 316 314 315 316 316 318 320 322 323 320 318 318 318 315 316 321 321 317 319 319 318 316 314 315 315 314 312 310 309 307 306 305 304 303 302 301 300 299 299 299 299 299 299 299 299 299 300 301 302 303 305 306 306 307 307 309 311 312 314 315 315 316 317 318 319 319 320 320 320 321 321 321 320 320 320 321 321 321 322
317 319 321 320 318 317 316 316 316 318 318 319 320 320 322 322 319 321 321 318 315 315 322 323 318 318 318 317 315 314 314 313 311 310 309 307 306 305 304 303 302 301 300 300 299 298 298 298 298 298 298 298 298 299 299 300 301 303 304 304 305 306 307 308 309 310 311 311 312 313 314 315 317 317 317 318 318 319 319 319 319 318 318 318 318 319
321 322 319 316 316 316 316 317 318 318 319 321 320 319 322 320 318 322 323 320 317 316 318 320 318 318 317 317 315 311 311 310 308 308 307 306 305 304 303 302 301 301 300 299 298 297 297 297 297 297 297 298 298 298 298 299 299 300 302 303 304 305 305 306 307 308 308 309 309 310 310 311 312 312 312 313 313 314 314 314 315 315 315 315 315 315
322 322 319 316 316 317 317 319 319 318 321 326 323 320 322 321 319 320 322 321 320 322 323 319 322 326 321 318 316 310 309 309 307 307 306 305 305 303 303 302 301 300 299 299 298 297 296 296 296 297 297 297 297 297 297 297 298 299 300 302 303 304 304 305 305 306 307 307 307 308 308 308 308 307 307 308 309 309 309 309 309 309 309 310 310 311
320 319 319 319 319 319 320 321 320 319 322 327 327 323 321 321 321 322 325 325 323 326 326 320 326 334 328 321 319 312 309 309 307 306 305 304 304 303 302 301 301 300 299 298 297 297 296 296 296 296 296 296 296 296 297 297 297 297 298 300 302 303 303 304 304 305 305 305 306 305 305 305 305 305 305 306 306 307 307 307 307 306 306 306 306 307
320 319 321 322 323 322 321 323 322 321 321 324 325 324 325 324 322 325 325 323 324 325 322 318 323 329 325 322 322 315 310 309 307 306 305 304 303 302 301 301 300 299 299 298 297 296 295 295 295 295 295 295 295 295 296 296 296 296 297 298 299 300 301 302 303 303 304 304 304 304 303 303 303 303 303 304 304 304 304 305 305 304 304 304 303 304
320 319 320 321 324 323 322 325 324 322 323 326 324 322 326 324 320 323 320 319 325 323 320 320 319 321 323 323 320 314 310 309 307 306 305 303 302 301 301 300 300 299 299 298 297 296 295 294 294 294 294 294 294 295 295 295 295 296 296 296 297 298 298 299 300 301 302 302 302 302 302 302 302 302 302 303 303 303 303 303 303 303 303 303 302 302
320 319 323 324 323 324 327 328 326 323 323 327 323 317 319 318 316 320 318 318 323 319 321 324 318 319 327 328 317 312 312 310 307 306 304 303 302 301 301 300 300 299 299 298 297 296 295 294 294 294 294 294 294 294 294 294 294 295 295 295 296 296 296 297 298 298 299 299 299 299 300 300 300 300 301 301 302 302 302 302 302 302 302 302 302 302
319 318 324 327 323 325 328 326 326 325 321 322 320 317 320 319 317 318 316 318 320 319 323 325 320 320 328 334 319 311 315 312 308 306 304 303 302 301 301 300 300 299 299 298 296 295 295 294 294 294 293 293 293 293 293 293 293 294 294 294 294 294 294 295 296 296 296 296 297 297 297 297 298 298 299 299 299 300 300 301 301 300 301 301 301 301
317 313 315 322 322 325 327 320 319 321 318 318 320 322 325 325 323 320 321 323 319 322 328 325 322 319 323 336 326 314 316 313 308 306 304 303 302 301 301 300 299 299 299 298 296 295 295 294 293 293 293 292 293 292 292 292 292 293 293 293 293 293 292 293 293 294 294 295 295 295 295 295 295 295 296 296 296 296 297 298 298 298 299 299 299 299
317 314 315 319 319 319 321 316 316 320 319 318 321 323 324 328 328 323 323 324 320 327 335 328 323 319 320 333 327 314 313 311 308 306 303 302 301 301 300 299 299 299 298 298 297 295 294 294 293 293 293 292 292 292 292 292 292 292 292 292 292 292 292 292 291 292 292 293 293 293 293 293 293 293 293 294 294 294 294 294 295 296 296 297 297 297
321 322 319 318 316 316 318 317 319 324 323 320 321 322 325 328 327 324 324 324 322 329 333 325 322 321 322 325 317 310 309 309 308 305 302 301 300 300 300 299 299 299 298 298 297 296 294 293 293 293 293 292 292 291 291 291 291 291 291 291 291 291 291 291 290 290 291 291 291 291 292 292 292 292 292 292 292 292 292 292 293 293 293 294 294 295
326 326 318 315 317 318 319 317 321 325 319 316 319 323 327 324 321 323 324 321 321 325 325 320 318 322 325 318 308 305 304 304 305 302 301 301 300 300 299 299 299 298 298 297 297 296 293 292 293 293 293 292 291 291 291 291 290 290 290 290 290 290 290 290 290 289 289 289 290 290 290 290 290 290 290 290 291 290 290 291 292 292 292 292 292 293
325 327 323 320 320 319 316 317 326 330 320 316 321 324 325 325 323 321 320 318 322 327 326 320 318 325 327 315 305 303 302 301 301 300 300 300 299 299 299 299 299 298 298 298 297 295 292 292 293 292 292 292 291 291 290 290 290 289 289 289 289 289 289 289 289 288 288 288 288 288 289 289 288 288 288 289 289 288 288 289 289 290 290 291 291 292
320 326 325 319 317 316 316 318 323 327 323 318 318 320 323 327 326 321 321 322 323 326 325 321 323 325 318 308 303 303 302 301 301 300 299 299 299 299 299 298 298 298 297 297 297 295 292 292 292 292 291 291 290 290 289 289 289 289 289 288 289 289 288 288 288 288 288 287 287 287 287 287 287 287 286 286 287 286 286 286 287 287 287 288 288 289
318 324 323 315 314 315 316 319 318 319 324 321 318 324 327 324 321 321 325 325 320 322 322 319 322 319 311 308 305 303 302 301 301 300 300 299 299 299 299 298 297 297 297 296 296 294 292 292 292 292 291 290 290 290 289 289 288 288 288 288 288 288 288 288 288 288 287 287 287 287 286 286 286 286 286 285 285 285 285 285 285 285 285 286 286 286
319 322 321 318 318 316 312 316 317 316 321 321 320 325 323 318 319 321 323 323 320 321 320 316 319 317 314 314 307 303 305 303 301 301 300 299 299 299 299 298 298 297 296 296 295 293 291 291 292 292 292 291 290 290 290 289 289 289 288 288 288 288 288 288 288 288 288 287 287 287 287 286 286 286 286 286 285 285 285 285 285 285 285 285 285 285
320 320 321 319 319 316 312 316 320 316 314 317 319 319 317 318 321 322 320 322 321 319 320 321 320 318 318 316 310 307 307 304 301 301 300 299 299 299 299 299 298 297 297 296 295 293 291 291 291 292 292 292 291 291 291 290 290 289 289 288 288 288 288 288 288 288 288 288 288 288 287 287 287 286 286 286 286 286 285 285 285 285 285 285 285 285
322 322 322 318 317 318 317 318 323 321 314 315 317 317 317 318 321 321 319 322 323 319 320 321 320 323 322 315 313 312 307 303 302 301 300 300 299 298 299 298 298 298 297 296 296 294 291 291 291 291 292 292 292 292 291 291 291 290 290 289 288 288 288 287 287 287 288 288 288 288 288 288 287 286 286 286 286 286 286 285 286 286 285 285 285 285
321 321 322 320 317 318 320 320 323 324 319 317 318 317 317 317 318 319 317 319 321 320 321 319 319 326 321 311 311 311 305 302 302 302 301 301 299 299 299 298 298 298 298 298 297 294 292 292 292 291 292 292 292 293 292 292 291 291 290 289 288 287 287 287 286 287 287 287 287 287 287 287 287 286 286 286 286 286 286 285 285 285 286 286 286 286
319 320 324 326 322 320 323 323 321 320 320 322 323 320 319 319 318 318 317 318 318 318 321 318 318 323 317 309 309 308 304 303 302 302 302 301 301 300 298 298 299 298 298 298 296 293 291 292 292 292 292 292 292 293 292 292 291 290 290 289 288 288 287 286 286 286 286 286 286 286 286 286 286 286 285 285 285 286 285 285 285 285 285 285 285 286
319 321 324 326 322 319 321 319 318 317 317 321 322 320 321 322 320 319 318 318 317 317 318 316 317 319 313 309 309 306 305 305 302 303 304 301 300 299 298 299 299 298 298 297 294 292 292 292 292 292 292 292 292 292 292 291 291 290 290 289 288 288 287 287 286 285 286 285 285 285 285 285 285 285 285 285 285 285 285 285 285 284 284 285 285 285
320 321 321 321 321 320 318 316 317 319 317 318 318 318 319 318 317 318 317 317 317 317 317 315 316 316 312 309 308 306 306 305 303 304 304 301 299 299 299 298 298 298 298 296 293 291 291 292 291 291 291 290 291 291 290 291 290 290 289 289 288 288 287 287 286 286 286 285 285 285 285 285 285 285 285 285 285 285 285 285 285 284 284 284 284 284
320 319 318 318 319 319 317 315 315 318 319 318 318 318 316 314 314 313 313 314 314 313 314 314 315 315 313 310 307 306 307 307 306 303 302 303 302 299 298 298 298 298 296 296 293 291 290 290 290 290 290 290 290 289 289 289 289 289 289 289 288 288 287 287 287 286 286 286 286 286 285 285 285 285 285 285 285 285 285 285 285 284 284 284 284 284
318 316 315 317 317 317 316 314 314 316 316 315 315 316 314 312 312 311 311 313 312 312 312 313 313 313 313 311 308 308 308 308 307 304 302 303 302 299 298 298 297 296 294 294 294 293 291 290 290 290 290 290 290 289 289 289 289 289 288 288 288 288 288 287 287 287 287 286 286 286 286 286 286 285 285 285 285 285 285 285 284 284 284 284 284 283
317 315 315 315 315 314 313 313 312 313 312 311 311 312 311 310 309 309 311 312 311 311 310 310 310 310 310 309 308 309 310 310 310 307 304 304 301 299 298 297 296 295 294 294 295 294 292 290 290 290 290 290 290 289 289 288 288 288 288 288 288 288 288 288 287 287 287 287 287 286 286 286 285 285 285 284 284 284 284 284 284 284 284 283 283 283
315 313 314 313 314 314 312 312 311 309 310 310 310 310 309 309 307 307 309 310 310 310 308 308 308 308 308 307 305 306 309 309 309 307 306 305 302 299 298 297 297 295 294 295 295 294 294 292 290 290 290 290 290 289 289 288 288 288 288 288 288 288 288 288 288 288 287 287 287 286 286 285 285 284 284 284 284 283 283 283 283 283 283 282 282 282
314 313 312 311 312 312 310 309 308 306 307 308 307 308 307 306 305 305 306 307 308 308 307 306 307 306 306 305 304 304 304 305 304 304 304 303 300 298 297 297 297 296 295 296 295 295 296 294 289 289 290 290 290 290 289 289 289 289 289 289 288 288 288 288 288 288 287 287 286 286 285 284 284 284 283 283 283 283 283 282 282 282 282 282 282 281
312 312 311 309 309 309 307 307 306 305 306 306 306 306 305 304 304 304 303 304 305 305 305 305 305 305 303 303 303 304 303 303 302 300 301 300 298 298 298 297 297 297 297 296 295 295 294 290 288 289 290 290 290 290 290 290 290 289 289 289 289 289 288 288 288 287 287 286 285 285 284 283 283 283 282 282 282 282 282 282 282 282 281 281 281 281
309 309 308 307 307 307 306 304 304 305 305 303 303 303 302 302 303 303 302 302 303 303 303 303 303 302 302 303 303 303 303 301 299 298 299 299 299 298 298 298 298 297 297 297 296 295 292 287 286 289 290 290 290 289 289 289 289 289 289 288 288 288 287 287 287 286 285 285 284 284 283 282 282 281 281 281 281 281 281 281 281 281 281 280 280 280
308 307 306 305 306 306 304 301 302 304 303 303 302 301 300 301 301 301 302 302 302 302 301 302 302 301 302 304 303 301 299 298 297 296 296 296 297 297 296 296 297 296 296 295 294 295 293 288 286 287 288 288 288 287 287 287 287 286 286 286 286 286 286 285 285 284 284 284 283 283 282 281 280 280 280 280 280 280 280 280 280 279 279 279 279 279
307 307 307 306 304 303 302 301 302 303 302 301 301 300 300 300 300 300 301 301 301 301 301 301 301 301 302 304 302 298 296 295 295 294 293 293 293 295 294 295 296 296 295 294 293 292 291 288 286 286 287 286 286 286 285 286 285 285 285 285 285 284 284 284 284 283 283 282 282 281 280 279 279 279 279 278 278 278 278 278 277 277 277 277 278 278
306 305 306 306 303 300 301 302 302 301 299 299 300 301 301 301 301 301 301 301 301 301 301 300 300 302 304 304 302 300 297 295 294 293 293 293 293 293 293 294 295 295 293 292 292 290 287 286 286 286 286 286 285 285 285 284 284 284 284 284 283 283 283 282 282 281 281 280 279 278 277 277 277 277 276 276 276 276 275 275 275 275 276 276 276 277
305 304 304 304 302 300 301 302 301 299 299 299 301 302 301 301 302 301 300 300 300 300 300 299 299 302 304 303 302 300 296 294 293 291 292 293 293 293 293 294 295 294 292 292 291 288 286 286 286 286 285 285 284 284 284 283 283 282 282 282 281 281 280 279 279 278 278 277 276 276 275 275 275 274 274 274 273 273 273 273 273 274 274 274 274 274
303 302 303 303 302 301 301 301 299 298 297 297 298 298 297 297 298 298 298 298 298 297 297 297 297 299 300 299 297 295 293 292 292 293 293 293 293 292 292 294 294 292 291 292 290 287 286 286 286 285 284 284 283 283 283 282 282 281 281 280 279 278 277 276 276 275 275 275 274 274 273 273 272 272 272 271 271 271 271 271 271 271 271 271 271 271
301 301 302 301 301 301 300 300 300 298 298 297 297 296 296 296 297 298 298 298 298 297 297 298 299 297 296 294 292 291 293 293 293 295 294 293 294 292 289 290 292 291 289 289 288 286 286 286 285 284 283 283 282 282 281 281 280 279 278 277 276 275 274 274 274 273 273 273 272 272 271 271 270 270 269 269 268 268 269 268 268 268 267 267 268 268
300 301 301 300 299 299 299 299 299 297 297 297 296 295 295 296 298 300 300 299 299 299 298 298 299 297 294 292 290 291 294 294 294 295 294 292 294 294 289 288 289 289 288 287 286 286 285 284 284 283 282 282 281 280 279 278 278 277 276 275 274 273 273 272 272 272 271 270 270 269 269 268 268 267 267 267 266 266 266 266 265 265 265 265 265 266
298 299 300 299 299 298 298 298 297 296 297 298 297 295 294 295 297 298 299 298 298 299 298 297 297 295 293 292 291 291 292 293 293 295 295 292 291 291 290 288 287 288 288 287 286 285 284 283 283 282 281 280 279 278 277 276 276 275 274 273 272 272 271 271 270 270 269 268 268 268 267 267 266 266 265 265 265 265 264 264 264 264 264 264 264 264
296 297 298 299 298 298 297 297 296 295 297 297 295 294 294 295 296 296 295 295 296 298 297 296 297 295 292 292 292 292 293 293 293 294 294 292 289 287 288 288 286 286 287 286 285 284 283 282 282 281 279 278 277 276 275 275 274 273 272 272 271 271 270 269 269 268 267 267 267 266 266 265 265 264 264 264 264 264 263 263 263 263 263 263 263 263
295 296 297 297 297 297 297 297 296 296 297 297 295 295 295 295 294 294 294 296 299 298 295 294 296 293 291 291 292 292 292 292 292 293 293 291 288 287 287 287 287 287 286 284 283 283 282 281 280 279 277 276 276 275 274 274 273 272 271 271 270 270 269 268 267 266 266 266 265 265 264 264 264 264 263 263 263 263 263 263 263 263 262 262 262 262
294 294 295 296 296 296 296 297 296 295 296 296 295 294 294 294 294 295 296 298 301 300 295 292 293 292 291 291 291 291 292 291 291 292 291 291 290 288 286 285 286 285 284 283 282 282 281 280 278 277 276 275 275 274 273 272 272 271 270 270 269 268 267 266 266 265 265 265 264 264 264 263 263 263 263 263 263 262 262 262 262 262 262 262 262 262
294 294 295 295 295 295 295 294 294 294 294 294 294 294 293 294 298 299 298 296 297 299 297 292 291 290 290 291 291 291 291 291 290 290 290 291 291 288 285 284 284 283 282 281 281 280 279 278 277 276 275 274 273 273 272 271 271 270 269 269 268 267 266 265 265 265 265 264 264 263 263 263 263 263 263 263 262 262 262 262 262 262 262 262 262 262
295 296 297 296 295 295 295 294 295 298 297 293 294 296 295 296 298 299 297 295 294 296 296 293 291 290 289 290 291 291 291 290 289 289 290 291 291 288 285 283 283 282 281 281 279 279 278 277 276 275 274 273 272 271 271 270 270 269 268 268 267 266 265 265 265 265 264 264 263 263 263 263 263 263 263 263 263 262 262 262 262 262 262 262 262 262
295 296 297 296 294 294 296 298 298 299 297 294 294 297 298 297 296 296 295 295 294 294 293 292 292 291 289 290 291 291 290 289 289 290 290 290 290 289 285 283 282 282 281 279 278 277 277 276 275 274 273 272 271 270 270 269 269 267 267 267 266 265 265 264 264 264 263 263 263 263 263 263 263 263 263 263 262 262 261 261 261 261 261 261 261 262
294 294 293 293 293 292 294 297 296 293 293 293 293 295 296 295 295 294 293 294 294 294 292 291 292 291 290 290 290 290 289 289 289 290 290 290 290 286 282 280 281 280 279 278 277 276 276 275 274 273 271 270 270 269 269 269 268 267 266 266 265 264 264 264 264 263 263 263 263 263 263 262 262 262 263 262 262 261 261 261 261 261 261 261 261 261
293 292 290 291 293 292 292 294 293 292 293 294 292 292 293 293 293 292 292 292 293 292 292 291 291 291 290 290 289 289 289 289 290 290 289 290 290 285 280 278 279 278 278 277 276 275 275 274 273 272 271 269 269 268 268 268 268 266 265 265 265 264 264 264 263 263 263 263 262 262 262 262 262 262 262 262 261 261 261 261 261 261 261 261 261 261
293 293 291 290 291 291 291 292 293 293 293 292 291 292 292 292 292 292 291 291 291 291 291 289 289 290 290 290 289 289 289 289 290 290 289 289 288 283 278 278 278 277 276 276 275 274 274 273 272 271 269 269 268 267 267 268 267 266 265 265 265 264 264 263 263 262 262 262 262 262 262 262 262 262 261 261 261 261 261 261 261 261 261 261 261 262
292 292 292 291 291 291 291 291 291 292 291 291 290 290 290 291 291 291 291 291 290 290 290 289 287 288 289 289 289 289 289 289 290 290 289 289 286 281 278 278 278 276 275 274 273 273 272 271 270 269 268 268 267 266 266 266 266 266 265 265 265 264 263 263 262 262 262 262 262 262 262 262 262 261 261 261 261 261 261 261 261 261 262 262 263 263
291 291 291 292 292 292 291 291 291 291 290 291 291 290 290 290 290 290 290 290 290 290 290 290 289 287 286 286 287 288 290 290 288 287 287 287 283 279 277 277 276 275 274 273 272 271 271 270 268 268 267 266 266 265 265 265 266 266 265 265 265 264 263 262 262 262 262 262 262 262 262 262 261 261 261 261 260 261 261 261 262 262 263 263 264 265
292 291 291 291 291 291 291 291 291 291 291 291 291 291 291 290 289 290 290 290 290 289 289 290 290 289 287 286 284 285 290 290 284 283 286 284 279 277 277 276 275 273 272 271 271 270 269 268 267 266 266 266 265 264 264 265 266 266 266 265 265 263 262 262 262 261 262 262 261 261 261 261 261 261 260 260 261 261 261 261 262 262 263 264 264 265
Wind_Speed
3 4 2 4 6 9 10 10 11 10 8 6 6 5 5 5 5 6 6 6 2 1 6 7 4 5 6 8 11 12 7 6 5 5 8 8 8 8 9 9 10 11 9 13 21 26 28 28 27 28 29 30 30 32 32 32 31 30 27 27 27 25 22 20 18 15 12 10 8 6 5 4 3 2 2 2 2 3 4 6 8 10 12 15 18 21
4 4 6 9 11 12 11 9 8 7 7 6 6 5 5 5 5 6 6 7 2 0 6 4 4 6 7 9 14 9 6 6 3 8 8 8 9 7 9 10 9 9 8 13 19 23 26 26 26 28 29 30 30 31 32 32 31 29 28 27 26 24 23 23 21 18 17 16 13 10 9 6 3 3 4 3 3 4 4 4 4 5 6 8 12 16
3 3 10 13 11 9 8 6 6 7 7 6 5 3 4 4 3 5 5 5 3 1 5 6 5 7 8 11 13 6 7 5 6 9 7 8 9 8 9 9 8 9 9 11 14 19 23 24 25 27 28 28 28 29 31 31 31 30 29 28 26 25 24 23 21 18 17 16 14 12 11 10 8 7 4 2 2 4 5 5 5 5 5 6 8 11
4 6 12 13 8 7 8 8 7 7 5 4 4 3 5 4 2 4 5 5 4 2 3 4 6 5 7 9 6 7 7 8 9 10 10 8 10 10 9 8 9 10 10 11 11 14 19 23 25 27 28 27 27 29 30 30 30 31 30 29 27 26 25 24 21 19 16 14 13 12 11 11 11 10 7 5 4 3 3 5 6 7 8 8 9 9
6 7 9 8 6 7 8 9 7 5 4 3 3 4 4 4 3 5 4 5 5 4 1 2 5 4 5 8 1 5 4 8 9 9 10 8 8 9 9 9 9 9 9 9 10 11 15 20 23 26 27 27 28 29 30 30 30 30 30 29 28 26 25 23 21 19 16 15 14 12 12 12 13 13 12 10 9 7 6 5 5 6 7 8 9 9
8 7 5 6 6 6 7 7 5 3 2 4 3 5 6 6 5 4 3 4 5 5 3 4 4 5 5 7 4 4 4 6 7 7 9 7 7 8 8 9 8 8 8 8 9 10 13 17 20 25 28 28 28 27 28 30 31 32 31 29 28 27 25 23 21 18 17 17 17 16 16 16 16 16 16 13 10 9 8 6 6 6 7 7 7 8
4 3 2 5 6 5 6 6 5 6 3 3 4 4 5 5 3 1 3 3 1 2 3 3 1 6 4 6 7 5 7 6 6 7 7 6 6 7 8 7 6 7 7 8 9 10 12 15 18 22 26 26 26 25 26 30 33 34 33 32 30 28 26 23 21 19 18 18 18 18 18 18 17 17 16 14 12 11 9 7 6 7 7 7 7 7
3 1 3 4 3 4 5 5 5 7 6 3 5 4 5 5 3 2 3 1 3 2 5 1 4 5 4 6 7 6 9 5 5 6 5 6 6 7 7 7 7 7 6 7 8 8 11 14 16 20 24 26 25 24 26 30 32 34 34 34 32 31 29 25 22 20 20 19 18 17 16 16 17 16 15 13 12 11 10 8 7 7 7 7 8 8
1 3 3 5 4 3 5 5 5 8 5 5 5 5 5 4 4 3 4 1 2 2 5 5 4 3 5 5 2 7 7 4 5 6 5 6 6 7 7 7 7 6 6 6 7 8 11 13 16 19 23 25 24 23 25 28 31 32 33 34 34 33 32 29 26 24 22 20 19 18 17 17 16 15 14 12 11 11 10 10 9 9 8 8 8 8
1 4 6 6 4 5 6 4 4 6 4 4 3 3 3 2 2 2 4 2 1 2 4 7 4 3 5 5 1 5 4 5 5 5 5 5 6 6 6 6 6 6 6 6 7 10 12 14 17 21 24 24 22 21 24 27 30 32 32 33 33 33 31 31 29 28 26 24 22 21 20 19 18 16 14 13 13 13 11 10 11 11 11 10 8 8
2 1 2 4 4 6 4 2 2 3 3 3 4 4 5 5 3 3 2 3 3 2 6 8 7 6 3 5 3 3 3 8 9 6 6 6 6 7 6 5 5 5 5 5 6 10 13 16 19 21 22 20 20 22 25 27 29 30 31 31 31 30 29 30 29 28 28 27 26 25 23 23 22 20 18 18 18 18 16 15 13 11 10 10 11 9
3 2 2 2 2 4 5 3 2 3 2 4 5 4 4 4 4 5 4 4 2 4 7 6 6 7 4 5 3 3 4 6 11 10 11 9 7 6 5 5 4 4 5 5 5 7 11 14 17 19 19 20 22 24 25 26 27 28 29 28 29 28 27 27 28 28 28 27 27 26 25 25 24 24 23 22 22 21 20 19 17 14 12 11 11 11
2 4 4 2 1 4 6 2 3 5 5 5 4 5 3 3 3 2 2 0 2 5 6 3 3 4 6 5 1 5 7 4 8 8 10 10 8 7 5 5 4 4 4 5 5 5 7 10 14 17 19 20 22 23 23 24 25 26 27 27 27 26 25 25 26 27 27 27 26 25 25 25 24 24 23 23 22 21 21 20 20 19 18 17 16 15
2 5 3 0 2 2 7 4 2 2 1 4 4 4 4 1 1 2 3 1 3 5 5 3 1 1 5 3 4 5 5 6 10 11 10 9 9 7 6 4 4 4 4 5 5 4 6 11 15 16 17 18 19 19 20 21 23 24 25 26 26 25 24 25 26 26 27 26 26 25 24 24 23 23 22 22 21 21 21 21 21 21 20 20 20 19
2 5 3 5 2 3 7 6 6 5 3 4 5 5 5 4 3 4 3 3 3 4 5 4 1 2 3 1 4 4 5 7 10 10 9 9 7 6 5 4 4 4 4 4 4 5 8 12 14 14 15 15 15 17 18 20 22 24 25 25 25 25 24 24 25 25 26 26 25 24 24 23 23 23 22 21 21 21 21 22 21 21 21 21 20 20
3 5 5 2 0 6 7 4 5 6 1 2 3 4 2 4 5 2 3 4 3 3 4 3 2 2 3 2 3 4 7 8 8 8 9 8 6 5 5 4 4 4 3 4 4 5 9 12 12 11 11 12 14 17 18 20 22 24 24 23 23 23 22 23 23 23 24 24 24 24 24 23 23 23 23 22 22 22 22 23 23 22 22 22 21 21
2 5 4 2 2 4 5 2 3 4 1 0 3 2 4 4 5 1 4 2 1 3 4 2 3 2 2 2 2 4 7 7 6 6 7 6 5 5 4 4 3 3 3 3 4 4 7 8 7 8 9 11 14 17 18 20 21 22 22 22 21 21 20 21 21 21 21 21 22 23 23 23 23 23 23 23 23 23 22 23 24 23 23 23 23 22
3 3 4 2 1 3 2 2 3 2 2 3 2 4 3 1 3 2 1 2 3 5 4 3 6 4 2 2 1 4 5 5 4 5 6 5 5 5 4 5 4 4 4 3 4 4 5 5 5 6 8 10 12 13 14 16 17 18 19 19 19 19 18 18 18 18 18 19 20 21 21 21 22 22 22 22 22 22 23 24 24 24 25 25 24 23
2 1 6 1 2 2 2 4 3 5 3 3 3 2 1 1 1 1 1 2 4 5 3 5 7 5 4 4 4 5 6 7 6 5 6 6 6 6 5 5 5 4 3 3 3 3 4 4 4 5 6 7 9 10 11 12 12 13 14 14 15 15 15 15 14 15 15 15 16 16 17 18 19 19 20 21 22 23 24 26 26 26 26 26 26 26
2 2 4 3 1 0 3 3 1 3 3 3 2 2 1 3 3 2 2 2 3 4 4 5 5 4 4 4 7 9 9 10 8 6 6 7 7 6 5 5 4 4 4 4 4 4 3 3 3 4 5 6 7 7 8 8 7 8 9 10 11 10 11 12 12 12 12 12 11 11 12 12 14 16 17 19 20 21 23 25 26 27 28 28 28 29
2 2 3 3 3 1 1 1 5 4 1 2 2 2 1 1 1 2 2 2 3 3 4 5 5 4 3 1 5 9 9 9 9 8 7 6 6 6 6 5 5 4 5 4 4 4 3 2 2 3 4 4 5 4 5 5 5 5 5 6 7 9 10 11 12 11 10 11 10 9 10 10 12 14 16 17 18 18 20 22 23 26 27 27 28 29
1 2 2 2 2 1 4 5 4 5 5 4 2 3 3 2 0 2 3 2 3 3 3 4 5 4 3 2 2 6 8 8 9 9 7 7 8 8 6 6 6 5 4 4 4 4 4 3 2 1 1 1 2 3 3 4 4 3 3 4 5 7 9 9 11 11 10 10 10 10 10 10 10 13 15 16 17 17 18 20 21 23 24 25 26 28
2 3 2 3 4 4 6 4 1 2 5 6 3 2 4 3 3 3 4 3 2 2 1 1 4 2 2 2 2 6 7 8 8 8 8 9 9 7 6 6 5 5 4 4 4 6 7 7 6 4 2 1 2 3 3 3 3 2 2 3 4 6 7 7 9 10 10 11 11 11 12 12 12 15 17 18 19 19 19 21 23 25 25 25 26 27
3 3 1 3 4 3 4 4 5 4 2 4 0 0 2 3 3 4 4 2 1 3 1 1 4 2 1 2 2 6 6 6 7 8 8 7 6 6 7 6 5 4 4 4 4 6 7 6 4 4 4 5 5 4 4 3 2 1 2 3 4 5 6 7 8 10 12 13 14 15 16 18 19 21 23 24 25 25 24 24 26 28 27 27 27 28
1 2 2 0 2 4 5 4 4 5 3 2 2 1 2 3 3 2 1 2 1 3 3 3 4 3 1 1 2 5 5 6 6 7 6 6 6 6 6 5 5 5 5 4 4 4 5 5 6 6 6 5 4 3 2 2 1 1 1 2 3 5 7 8 9 12 14 16 18 19 21 23 25 27 28 29 29 30 29 29 30 30 30 29 30 30
2 3 3 3 4 5 4 2 2 1 2 0 2 2 1 3 3 1 0 1 2 2 2 3 4 3 2 1 3 4 4 5 7 6 6 6 6 6 6 6 6 6 6 6 5 5 4 4 4 5 4 3 2 1 1 1 3 3 5 6 6 7 9 10 11 14 16 19 21 23 25 27 30 32 32 32 32 32 32 32 33 33 33 32 33 33
3 1 3 5 6 7 5 5 4 3 1 3 4 5 6 5 3 3 2 3 3 1 3 7 7 5 8 8 4 5 5 6 6 6 6 6 5 6 6 6 6 6 6 6 5 5 4 3 5 6 5 4 4 3 4 4 6 7 9 10 10 10 12 13 14 16 18 20 22 23 25 28 31 33 34 34 34 34 34 34 34 35 35 35 34 35
4 1 3 5 6 6 5 5 2 3 2 5 6 8 9 6 3 4 4 5 4 2 6 10 8 6 10 11 6 4 6 6 6 6 7 7 6 6 6 6 6 6 5 5 5 5 5 5 7 8 7 6 6 6 6 7 7 8 10 11 11 11 12 13 15 17 18 19 21 22 23 26 30 33 34 35 35 36 36 36 36 36 36 36 36 36
5 3 3 4 4 7 4 2 2 1 3 5 6 8 10 10 7 5 6 8 6 6 10 11 10 9 10 10 7 5 6 6 6 7 5 3 6 6 6 7 6 6 5 5 6 6 6 6 8 10 10 9 9 9 10 11 11 12 13 13 13 13 12 13 15 16 16 17 18 20 23 27 31 33 34 35 35 36 37 37 37 37 37 37 37 37
4 2 2 3 2 6 5 3 1 1 3 5 7 10 11 11 9 7 9 10 8 9 12 11 11 13 11 8 6 7 6 4 3 2 2 5 7 7 7 6 6 6 6 6 7 7 6 8 10 13 13 12 12 13 15 16 17 17 17 16 15 13 11 11 12 12 13 14 17 21 25 29 33 34 34 34 35 36 36 37 38 38 38 39 39 39
2 1 1 3 1 5 4 2 1 2 3 6 10 13 12 10 10 10 11 9 7 10 12 10 10 12 9 5 5 4 1 3 4 4 4 6 7 7 6 6 6 6 6 6 7 6 6 7 10 12 13 13 13 13 13 13 13 13 12 10 8 7 6 7 8 10 13 17 21 25 28 31 32 32 32 32 33 34 35 35 36 37 38 39 40 40
2 1 1 4 2 5 2 4 2 5 4 7 14 17 15 11 9 9 8 8 9 11 10 8 8 9 6 5 5 1 5 5 5 5 5 5 5 6 7 6 6 5 6 5 3 1 1 2 4 5 6 6 4 4 5 6 7 6 7 7 7 7 8 10 12 16 20 23 26 28 30 30 30 30 30 30 30 31 32 33 34 36 37 38 39 40
3 3 0 3 2 6 3 4 4 3 2 7 11 13 13 12 10 8 8 10 11 9 7 7 7 7 5 5 5 2 4 5 5 5 4 4 5 6 6 6 5 5 5 4 2 2 3 3 5 5 6 6 8 9 9 8 8 8 9 9 10 12 14 16 19 21 24 26 27 28 28 27 27 28 29 29 29 30 31 32 33 35 36 37 37 37
4 5 3 3 3 4 3 4 4 2 5 7 5 6 9 9 9 10 11 11 10 7 6 6 4 4 5 6 6 6 6 6 5 5 4 4 5 6 6 5 5 5 5 5 5 4 5 8 9 10 10 8 7 7 7 7 7 7 8 10 12 14 17 19 21 22 24 26 26 25 25 25 26 27 29 29 30 31 32 32 33 34 33 33 34 34
5 5 3 3 2 2 2 5 2 7 8 4 1 4 6 7 9 10 11 10 9 8 8 6 4 5 6 6 6 7 7 6 4 5 5 5 5 6 6 6 5 5 6 5 5 5 8 10 10 9 7 5 5 5 5 6 7 8 10 12 14 16 17 19 20 22 23 24 24 23 23 24 25 27 28 29 30 32 32 32 32 32 31 31 32 34
6 5 3 3 2 1 2 4 6 5 4 6 7 4 2 3 5 5 6 8 8 7 7 6 6 6 6 6 5 5 4 2 1 2 5 6 6 6 6 6 5 6 7 7 6 8 10 10 9 8 5 3 3 4 5 7 8 10 13 15 16 17 17 18 20 21 21 21 21 22 22 23 25 27 29 30 30 31 31 30 30 31 32 33 35 35
7 5 3 2 2 2 3 6 6 4 8 12 11 4 2 3 4 4 3 7 7 4 5 5 4 5 5 5 4 2 2 4 4 4 5 5 6 6 7 7 8 8 8 8 9 11 11 9 8 6 4 2 2 3 5 7 9 12 15 17 17 17 17 18 18 18 18 19 20 21 22 23 26 29 31 31 30 30 30 30 31 33 32 33 35 35
6 6 5 3 3 2 3 4 4 3 7 10 7 2 1 2 5 7 3 4 6 5 4 6 6 7 6 5 4 2 4 3 3 5 4 4 5 5 6 9 11 10 9 12 13 13 11 9 7 6 4 2 1 3 5 8 11 14 16 17 17 17 17 17 16 16 17 19 20 22 23 25 27 29 31 31 30 31 32 32 33 33 31 31 33 35
5 4 5 4 4 4 4 4 5 5 7 7 5 4 2 4 7 7 4 4 6 6 5 6 6 7 7 6 5 4 4 2 5 5 4 5 6 5 6 7 8 8 10 13 14 13 11 9 7 5 3 1 1 4 7 10 13 15 16 16 16 17 17 16 15 17 19 21 22 23 25 26 27 28 29 31 31 31 32 33 33 32 32 32 33 35
4 3 4 5 6 8 7 6 4 5 5 5 6 6 5 3 5 6 3 6 6 5 5 7 8 9 9 7 5 5 5 5 5 5 6 7 7 7 8 7 7 11 14 14 12 11 11 9 7 5 3 1 3 6 10 13 15 16 16 16 16 16 16 15 17 19 21 22 24 25 25 26 27 28 28 30 32 32 32 32 33 33 33 34 35 36
2 1 3 6 8 10 10 7 4 4 4 5 6 7 5 3 4 0 7 7 5 5 6 7 9 9 9 7 6 5 6 7 6 6 6 6 6 7 7 7 10 14 16 14 12 11 10 7 5 4 2 1 4 8 12 15 16 16 15 16 16 15 15 17 19 21 22 24 25 25 25 25 26 27 28 29 31 32 32 32 33 34 34 35 36 36
2 1 2 5 6 7 7 6 4 5 4 7 6 4 4 4 1 6 7 4 5 7 7 7 8 8 8 8 7 7 7 7 6 6 6 6 6 5 4 7 11 13 14 13 12 9 8 6 4 2 0 3 7 10 13 15 16 16 15 15 15 15 17 19 21 22 24 25 26 26 26 26 26 27 29 30 30 31 32 33 33 33 34 35 35 35
5 4 3 5 5 3 3 5 4 5 5 8 6 1 2 5 6 5 4 3 5 6 6 7 8 8 8 8 8 7 7 7 7 7 7 6 6 5 6 11 14 14 13 12 9 7 6 4 2 1 3 6 9 11 14 15 16 15 15 16 15 16 18 20 22 24 26 27 27 27 27 27 28 28 29 30 30 30 32 34 33 33 33 33 34 34
3 5 4 5 3 5 4 6 6 5 5 7 7 4 5 7 6 5 5 5 5 5 6 6 8 9 9 9 8 8 7 7 7 7 6 5 6 5 7 12 14 14 13 11 8 6 4 2 1 3 6 8 10 12 13 14 15 15 16 16 16 18 20 22 23 26 27 27 28 28 28 28 29 29 29 30 31 32 33 33 32 32 32 32 32 32
6 6 5 4 3 5 5 5 5 4 4 6 6 6 7 8 7 6 7 6 5 5 5 6 7 9 9 9 8 7 7 7 8 7 6 6 6 6 8 11 13 13 12 10 8 5 4 3 4 5 7 9 11 12 13 13 13 15 16 16 17 19 21 23 25 27 27 28 28 28 29 29 29 29 30 31 32 31 32 31 30 30 31 31 30 30
7 4 1 1 1 1 2 4 4 3 3 5 7 7 7 8 7 6 7 6 6 6 6 7 8 10 9 8 8 7 8 8 8 7 7 7 6 6 9 11 12 12 12 10 7 5 4 5 6 8 9 10 11 12 13 13 12 14 16 17 18 20 21 23 25 27 27 28 28 29 29 29 29 29 31 32 31 29 30 30 29 29 30 30 29 30
6 5 4 3 2 2 2 4 5 5 6 7 8 8 7 8 8 6 7 7 7 7 8 8 10 10 9 9 9 9 9 9 8 8 7 6 6 7 9 12 12 12 11 9 7 6 5 7 9 11 12 12 12 13 14 13 12 13 15 17 18 20 21 23 25 26 27 28 29 29 28 28 29 31 31 31 30 29 30 29 27 28 29 29 29 29
4 4 5 6 7 6 6 5 6 8 10 9 7 6 6 8 10 8 7 7 8 8 8 8 9 8 8 8 10 11 10 9 9 8 7 6 6 7 10 13 14 12 10 8 7 6 6 7 10 12 13 13 13 14 14 13 13 14 16 17 18 19 21 23 24 26 28 28 29 29 27 27 29 31 31 30 30 29 30 30 28 28 29 30 30 29
3 4 4 3 4 5 6 6 7 8 10 10 9 8 8 9 9 9 9 9 9 9 8 8 9 9 10 10 10 10 10 10 9 9 8 7 6 8 11 13 13 12 10 8 7 7 7 8 10 11 12 14 14 14 14 13 14 15 16 17 18 19 21 23 24 26 28 28 28 27 27 28 30 30 30 31 30 29 30 30 28 27 30 32 32 29
5 7 6 2 3 6 7 8 7 6 8 10 10 10 10 10 9 9 10 9 9 9 9 9 9 10 10 11 11 10 9 10 9 8 8 7 7 10 13 14 13 11 10 8 7 8 8 9 9 10 13 14 14 13 14 14 15 15 15 15 17 19 20 23 25 26 27 27 27 28 28 29 30 30 30 30 30 29 30 31 29 27 27 31 33 32
8 9 7 5 6 10 11 10 8 7 8 10 9 9 10 9 9 10 11 11 11 11 10 9 10 9 8 11 13 13 11 9 10 10 7 7 10 13 14 14 14 12 10 9 8 8 9 9 9 11 13 13 13 13 14 15 15 14 14 15 17 19 20 22 23 25 27 27 28 29 28 28 29 30 29 29 29 28 28 30 34 34 29 27 29 32
Wind_Direction
121 102 140 199 213 224 224 215 213 224 229 235 253 259 251 253 267 265 266 273 284 319 261 250 265 280 274 276 272 275 310 336 331 57 83 86 77 74 74 67 61 60 51 43 41 38 38 36 35 35 35 38 41 45 49 53 55 57 60 61 59 59 62 64 61 58 53 45 36 26 15 2 352 333 286 255 247 242 241 240 238 238 235 233 233 233
103 131 207 218 218 227 233 226 222 235 244 241 237 243 253 248 253 261 267 277 294 154 261 294 353 301 286 282 281 296 8 356 38 93 90 83 79 71 69 65 61 61 49 44 41 37 36 35 36 38 38 38 39 41 45 49 52 55 58 58 57 59 61 61 61 61 57 53 52 51 45 42 39 19 350 330 317 307 307 301 286 270 256 244 237 237
138 206 232 227 223 238 257 252 242 249 253 254 247 239 261 268 288 290 292 310 356 84 272 319 332 294 284 279 293 348 69 55 53 82 82 80 82 68 64 63 59 59 47 42 39 34 33 32 35 39 39 39 41 44 47 50 52 54 55 56 57 58 59 59 60 60 56 55 59 59 56 63 76 70 49 22 340 307 310 315 314 309 296 278 257 247
178 234 237 234 228 238 261 268 265 270 275 267 262 262 272 292 346 289 299 334 344 274 256 300 299 292 284 280 334 41 88 89 71 76 75 76 83 79 73 66 59 59 50 44 41 33 31 32 34 37 37 37 40 44 48 50 52 54 55 57 58 58 58 57 57 57 57 59 65 66 64 67 71 68 65 67 58 28 347 332 324 317 309 301 290 275
207 226 226 229 221 207 236 265 267 273 299 284 222 209 250 278 245 234 280 331 335 317 323 14 326 300 256 257 353 68 83 86 85 81 76 71 78 83 78 68 62 60 56 49 44 36 32 31 33 37 38 37 37 40 45 49 52 55 58 60 62 62 61 58 57 57 57 59 63 69 72 72 69 62 59 63 62 57 46 27 7 349 332 320 308 295
234 238 225 235 240 205 210 250 241 201 295 306 242 210 221 235 237 242 331 8 18 340 323 49 360 294 254 252 231 149 102 79 80 78 80 76 71 76 70 65 62 61 62 56 48 45 42 38 37 40 40 38 36 38 44 50 54 56 58 61 64 64 63 61 59 59 61 61 58 59 60 57 55 51 47 51 57 58 53 45 31 16 360 346 334 316
235 245 195 210 231 201 194 242 227 160 130 289 251 199 180 161 146 105 46 35 60 261 290 70 79 275 271 258 247 157 115 99 89 79 82 80 70 73 71 66 63 56 59 64 55 45 45 46 43 43 42 39 36 38 46 53 56 57 57 59 61 62 62 60 59 60 62 63 60 58 56 51 47 43 41 45 53 54 47 38 27 17 9 1 357 345
199 103 80 134 149 156 181 242 231 152 131 231 236 145 112 105 115 157 117 104 228 245 319 333 182 258 277 253 242 137 114 110 102 92 89 89 82 83 80 72 68 59 50 61 64 50 44 46 48 50 48 46 41 39 47 54 57 59 58 59 60 61 61 59 59 60 60 60 59 57 57 53 47 42 39 41 47 53 52 46 30 14 5 359 359 0
194 158 194 151 124 157 198 224 190 144 148 231 218 146 118 134 170 174 134 176 261 10 318 268 188 233 273 266 220 123 128 156 144 128 113 102 92 87 84 77 71 67 53 51 61 56 45 43 48 54 55 53 48 43 48 56 60 62 62 61 61 59 59 59 60 61 60 60 59 57 55 51 47 43 39 36 36 43 52 55 45 29 15 359 345 344
245 188 193 140 133 202 214 225 167 145 180 221 180 129 67 90 145 119 127 141 26 27 256 238 186 197 272 292 139 128 158 184 161 139 126 112 99 87 78 75 68 64 59 49 56 56 50 47 49 55 59 57 53 48 51 57 61 63 63 63 62 58 57 59 61 62 60 59 58 55 52 49 45 41 37 33 29 27 32 43 44 37 31 24 8 348
303 303 190 141 175 195 172 153 107 132 164 126 89 51 18 7 24 54 93 94 67 293 248 228 202 186 268 295 208 182 208 171 154 146 141 117 97 90 76 74 70 65 64 54 57 57 53 53 52 55 57 55 54 53 53 55 59 62 63 63 63 59 58 59 60 61 61 60 59 56 54 51 47 44 41 37 30 24 22 24 27 26 25 25 24 17
323 329 246 231 197 137 109 91 24 27 80 93 75 58 26 340 7 31 7 43 105 249 259 241 203 176 214 264 242 302 312 153 149 156 150 128 106 98 83 77 74 70 69 58 54 52 50 52 50 50 49 47 49 51 52 53 57 60 62 63 63 60 58 59 59 60 60 60 60 58 56 54 50 48 47 43 38 32 27 23 22 23 21 16 12 8
277 238 246 288 285 130 114 102 345 358 31 79 84 79 65 344 3 13 314 8 198 247 254 222 136 162 221 250 346 354 351 62 107 124 130 121 112 103 91 81 71 63 64 60 54 50 47 45 42 41 40 41 45 47 49 52 56 59 61 63 62 58 57 58 58 59 59 58 58 57 56 55 52 49 47 45 43 40 35 31 27 27 26 22 16 7
305 298 286 232 303 161 136 147 224 301 98 128 136 130 122 102 26 266 258 253 260 266 254 228 103 243 251 294 25 23 13 59 91 101 108 111 112 111 107 97 73 57 52 51 51 49 47 43 40 40 39 41 44 46 49 51 54 59 60 62 62 59 58 59 58 58 58 57 56 56 56 55 53 50 48 46 45 43 41 39 36 33 31 28 24 16
210 303 245 180 239 176 162 182 175 145 154 179 165 142 144 156 177 223 232 222 248 271 276 277 284 213 214 342 26 40 47 64 84 96 100 99 105 109 104 92 75 62 46 42 47 47 48 48 45 44 43 44 47 49 51 51 54 57 58 58 59 57 56 57 58 58 57 57 55 55 54 54 52 50 47 46 43 42 41 41 40 38 35 33 29 22
184 258 242 197 177 159 173 213 153 113 87 233 147 118 164 192 178 215 248 210 202 274 284 271 253 204 146 86 55 65 67 70 75 85 92 94 100 103 100 97 90 79 62 55 57 51 52 56 55 52 53 54 55 55 54 52 53 55 55 55 56 55 55 55 55 56 56 56 55 53 52 51 49 47 44 43 40 38 38 37 37 36 35 33 31 27
176 263 270 26 16 176 178 204 136 117 173 211 111 171 224 190 147 158 285 263 176 251 252 226 263 301 83 84 68 70 73 80 84 91 100 108 109 109 120 132 129 123 115 92 79 72 67 67 68 66 63 61 58 57 56 55 54 54 52 52 52 51 52 51 51 50 50 50 49 47 46 45 43 42 39 37 35 34 34 33 32 31 31 30 29 26
170 266 270 149 164 245 193 100 38 46 122 135 177 223 236 84 97 112 258 279 256 248 249 241 254 258 224 234 130 101 108 116 126 123 119 124 131 142 159 164 165 159 139 111 99 104 102 95 85 78 71 65 63 59 58 57 53 51 50 49 48 47 47 46 46 46 44 43 40 37 35 34 33 32 29 27 25 25 25 25 23 22 23 23 22 21
136 267 283 238 158 247 27 63 12 350 33 128 194 225 90 85 282 284 168 212 241 250 269 262 251 246 235 215 164 169 174 161 160 150 144 158 167 172 175 177 182 165 146 137 138 147 139 115 81 71 70 66 65 60 58 57 53 50 49 48 48 47 47 46 46 48 46 43 40 33 29 27 24 22 19 16 14 14 15 14 12 11 11 11 11 10
105 137 277 309 90 133 33 60 196 281 354 38 35 1 39 167 192 221 195 179 215 243 266 265 254 252 252 207 175 191 187 167 163 163 174 187 185 186 184 181 185 175 174 177 177 184 159 103 57 58 64 62 64 59 55 56 52 50 47 48 50 47 48 48 44 48 48 44 42 35 28 24 19 17 14 10 8 6 5 4 2 1 0 0 0 0
83 152 234 308 349 52 77 203 178 172 126 54 32 356 287 240 211 253 248 166 166 218 245 255 253 248 263 236 182 188 176 161 164 168 182 195 195 203 200 186 187 188 190 193 195 193 168 95 58 73 69 61 60 53 50 49 44 47 45 44 44 40 44 46 41 45 47 42 41 34 28 23 16 12 8 6 4 359 356 356 356 355 353 352 351 351
138 168 184 270 304 189 220 230 168 151 155 145 156 198 200 204 200 274 272 207 165 195 202 230 262 262 273 303 160 156 153 158 168 167 173 194 201 205 203 191 189 189 190 195 188 178 174 190 208 185 29 16 36 40 51 56 50 56 51 36 29 31 38 40 37 41 43 39 38 31 27 23 11 5 2 1 0 354 348 347 347 347 347 346 345 345
118 114 139 242 244 218 237 253 131 160 180 161 170 207 184 167 143 189 249 234 205 248 151 217 267 254 251 282 126 134 149 158 164 166 175 194 202 198 195 192 186 184 191 192 185 194 207 218 226 230 240 195 130 94 92 97 81 69 47 27 21 20 27 29 26 29 30 28 27 22 18 13 3 358 357 356 355 351 345 341 340 341 340 339 338 337
76 94 137 266 285 300 299 328 16 15 108 143 258 333 161 179 156 173 217 188 183 270 305 289 256 216 238 306 105 126 138 148 168 184 185 191 198 197 195 185 174 184 205 213 205 210 214 203 172 144 130 124 123 114 109 116 105 80 34 18 17 12 10 8 7 10 12 14 14 12 9 5 359 355 352 350 349 347 344 339 336 336 335 332 331 330
112 132 137 195 299 317 333 348 355 0 45 128 246 273 161 175 136 110 136 118 160 237 202 210 247 216 182 337 105 122 132 156 197 206 188 186 196 200 194 179 178 191 201 200 181 165 160 142 125 119 118 115 116 112 105 103 85 54 4 344 346 352 355 354 353 355 358 1 3 2 1 359 354 349 346 343 341 340 338 336 333 332 331 328 326 325
140 159 145 142 204 240 260 247 226 289 33 89 267 292 256 202 186 161 150 171 219 238 191 215 248 256 276 240 162 156 165 190 220 221 207 210 204 189 180 179 182 178 171 171 161 150 147 144 140 141 145 155 165 195 270 316 323 324 328 330 331 336 342 346 345 346 347 349 349 349 349 348 345 341 338 335 333 332 331 330 329 328 327 325 324 322
107 173 178 164 196 223 219 211 194 131 129 259 275 282 273 255 217 175 173 202 208 236 256 248 242 256 277 269 219 175 194 219 234 227 222 227 204 179 175 173 169 166 166 168 166 168 177 195 200 194 195 208 220 258 293 312 324 325 325 326 326 328 333 336 336 336 336 335 334 334 334 336 335 333 330 328 326 325 324 324 324 323 323 321 320 318
99 267 233 173 205 234 211 209 214 92 161 229 252 268 268 262 220 167 188 211 199 223 258 255 251 249 262 267 255 199 207 228 242 241 237 226 195 171 159 155 159 171 180 183 188 196 204 220 221 214 212 221 237 261 279 287 296 302 303 306 309 313 318 323 322 322 322 321 321 323 325 328 328 326 323 321 320 319 319 319 319 319 318 317 316 315
112 243 246 160 221 259 253 259 308 68 208 222 235 254 262 261 243 208 218 224 208 231 257 262 266 262 259 267 271 251 242 244 242 246 247 197 159 144 143 155 170 188 201 212 223 223 220 227 229 226 228 233 243 258 266 269 273 276 278 283 289 293 299 308 311 311 312 313 315 318 320 322 322 320 318 316 316 316 316 316 316 316 315 313 313 312
109 236 254 142 224 272 274 274 280 221 237 254 253 252 255 261 258 240 241 238 221 232 252 261 267 267 263 262 262 261 260 242 199 181 114 121 137 144 156 174 193 211 218 224 234 235 230 229 229 228 230 234 240 249 256 260 266 269 271 275 280 285 294 303 306 306 308 310 312 314 317 318 318 317 315 313 313 313 313 313 313 312 311 311 310 310
85 171 224 105 56 286 263 156 133 245 242 266 271 264 259 262 264 256 252 253 244 242 248 253 260 265 270 270 259 249 173 105 113 119 124 141 154 159 173 195 208 218 226 226 229 236 241 241 238 234 234 239 248 257 265 272 279 282 286 292 299 308 314 310 306 308 309 309 311 314 316 318 317 314 312 311 311 311 311 310 310 309 308 308 307 306
80 159 292 79 68 280 250 128 214 264 273 272 268 262 255 249 248 249 244 236 237 246 254 254 253 259 270 277 268 154 100 109 128 131 131 152 169 169 184 207 212 213 224 231 229 223 234 274 283 275 266 267 293 349 0 353 357 5 4 3 357 344 329 317 314 313 311 311 312 314 316 316 315 313 311 311 311 311 310 309 307 306 305 305 304 304
128 135 131 104 138 272 271 133 185 244 314 278 258 248 246 243 240 244 244 239 235 236 247 249 248 250 244 242 245 187 127 145 161 156 151 166 188 195 200 206 209 214 220 217 179 126 113 89 68 63 67 68 59 49 37 23 20 18 3 344 332 324 317 314 314 312 310 309 311 313 315 315 314 312 311 311 311 310 309 307 306 305 304 303 302 301
150 148 182 162 161 256 254 107 114 215 257 260 224 191 211 222 225 233 242 245 238 227 235 250 256 235 205 199 207 198 187 185 184 191 190 176 193 222 230 221 213 209 196 185 179 151 117 105 99 94 91 80 57 39 25 7 356 348 332 320 318 318 316 314 312 310 308 309 311 314 316 315 313 311 310 310 310 309 308 307 306 305 304 303 301 299
165 163 188 179 158 215 161 98 152 231 238 252 178 176 201 203 210 227 244 251 244 237 241 252 251 219 206 208 205 195 201 209 197 197 208 202 201 214 231 235 219 192 176 179 176 139 123 124 117 105 97 75 41 22 3 346 335 327 322 322 322 321 319 315 311 309 310 310 313 315 316 315 313 311 310 309 309 309 308 307 306 305 304 303 301 299
167 168 181 181 176 181 157 184 222 241 293 303 290 274 242 221 213 230 264 264 249 234 220 225 245 234 216 218 210 188 194 230 302 236 228 230 221 212 219 224 206 187 186 183 165 147 141 139 127 114 107 84 37 2 343 334 327 322 323 325 325 323 321 316 312 312 313 313 315 317 317 316 313 310 310 310 310 309 308 307 306 305 305 304 300 299
161 168 177 193 216 207 199 224 250 328 320 287 275 256 213 224 192 167 234 261 256 232 177 171 212 220 193 187 195 175 81 39 360 305 264 250 233 217 214 204 187 187 187 166 151 148 146 138 129 126 126 101 32 348 333 322 318 320 323 325 327 325 323 319 317 317 317 316 318 317 316 314 312 311 312 312 312 310 309 308 306 306 306 305 302 300
171 184 185 201 241 213 183 238 265 292 272 261 260 249 210 177 145 131 120 283 276 258 196 170 187 196 179 173 182 132 67 51 306 278 271 259 232 199 196 199 192 186 169 150 146 147 144 142 139 136 136 124 39 330 321 318 320 325 327 329 330 327 324 324 322 322 321 319 318 316 314 313 313 312 313 312 312 310 309 309 308 307 307 304 301 299
170 185 175 186 236 221 200 227 231 234 251 248 236 229 201 155 129 99 53 300 263 243 206 173 177 188 183 181 172 132 110 190 256 260 243 241 235 196 188 201 192 173 161 158 158 156 152 152 148 140 142 138 358 327 322 321 324 329 331 331 330 327 327 327 325 322 320 318 316 314 314 314 314 314 313 312 311 310 309 309 308 307 305 302 299 298
144 152 176 194 221 222 220 233 233 236 251 236 215 215 205 158 94 65 337 267 241 227 200 168 173 190 189 182 164 147 169 204 234 244 219 214 221 206 198 203 183 165 162 161 161 160 156 157 155 146 139 74 344 326 322 325 328 332 333 331 329 329 329 325 320 319 318 317 316 315 315 316 315 314 313 311 310 310 309 309 307 307 305 303 301 299
118 144 205 212 223 225 222 230 247 250 228 204 206 208 186 103 63 249 248 242 210 212 208 180 184 192 182 174 174 184 207 211 214 231 220 203 217 225 217 207 188 174 168 163 160 160 158 155 152 145 134 340 323 322 324 328 330 332 331 330 330 329 325 320 318 320 320 319 318 316 316 316 316 315 314 313 311 310 309 308 307 306 305 304 302 301
139 146 246 227 224 229 227 230 261 279 228 186 188 200 156 125 191 230 231 215 184 199 203 190 195 194 181 185 194 202 223 224 218 234 233 210 218 235 201 173 166 161 160 159 159 163 163 156 151 151 238 316 318 324 328 328 329 330 329 329 328 325 321 320 322 324 323 320 318 317 317 318 318 317 316 314 313 311 309 309 308 306 305 303 301 300
164 158 226 226 201 190 218 223 236 267 230 166 144 110 181 188 210 214 207 210 203 195 190 193 203 200 191 199 209 212 225 233 229 233 233 220 223 226 195 180 172 163 159 162 165 172 173 167 166 245 320 322 322 326 330 329 328 328 327 325 325 324 323 325 327 326 323 320 318 318 319 320 320 319 317 316 316 313 310 309 307 306 305 302 300 299
182 162 194 226 185 147 188 218 212 225 221 172 153 172 209 210 206 176 172 210 223 203 191 199 214 213 200 200 214 220 225 233 231 228 230 229 228 223 201 187 178 170 166 170 175 182 192 207 264 311 318 320 322 326 330 330 327 324 323 323 325 326 326 328 329 326 322 319 319 319 321 321 320 319 319 319 317 313 308 307 306 306 305 303 301 299
218 191 197 235 205 162 182 214 216 216 204 180 180 197 211 223 223 190 181 203 217 208 198 200 218 223 210 201 211 220 224 226 224 219 218 222 225 215 195 184 179 175 174 176 181 197 227 268 296 309 313 317 321 325 329 330 326 320 319 324 327 329 329 330 329 324 320 319 319 320 320 319 319 320 321 319 315 310 306 305 305 305 304 303 302 300
239 227 236 270 173 175 211 204 211 246 225 197 212 222 219 225 228 206 196 210 218 211 201 199 214 222 214 203 207 220 225 219 215 215 214 220 224 203 181 175 173 175 179 181 189 213 249 285 297 305 313 318 320 323 327 328 324 318 320 326 329 331 331 330 326 322 319 319 319 320 320 319 319 320 319 316 312 308 304 304 303 303 303 302 301 299
263 238 234 228 219 279 254 182 185 228 237 225 228 234 236 243 242 217 199 209 221 219 209 208 216 218 212 204 203 213 219 212 207 215 216 213 210 189 174 173 175 178 186 192 202 229 261 286 297 306 313 316 318 322 324 325 324 322 324 327 331 333 332 329 325 320 318 319 319 319 320 319 319 319 317 313 311 308 305 304 303 302 301 300 300 299
255 208 212 230 233 237 243 226 216 232 243 242 233 223 226 238 241 233 223 223 229 231 225 217 214 212 214 212 206 209 216 211 205 212 215 207 201 189 182 183 182 182 189 200 214 240 267 284 296 305 307 309 315 319 320 323 326 326 327 330 334 335 332 327 323 319 317 318 319 319 319 318 318 317 314 311 310 308 306 305 304 302 301 300 299 296
235 215 203 207 228 247 260 254 243 248 260 260 246 231 227 229 229 232 235 234 235 242 241 230 219 214 214 213 206 204 211 213 208 208 210 205 196 191 188 186 186 188 193 204 223 247 268 283 293 298 299 303 311 315 318 322 325 325 328 333 337 337 331 325 322 319 318 319 319 318 318 318 318 316 311 308 308 306 305 305 303 300 300 301 299 295
229 238 230 201 238 258 255 238 220 227 254 257 246 236 231 227 224 228 235 238 237 236 234 231 232 229 224 219 209 197 203 216 213 204 205 204 194 191 187 183 184 190 197 208 230 251 268 282 289 291 294 302 309 313 317 320 322 326 332 336 338 336 330 324 321 318 318 319 319 318 318 319 318 315 311 308 307 306 307 308 307 302 297 298 300 299
225 229 223 213 233 246 249 240 217 210 239 252 248 241 234 226 221 224 230 235 234 230 224 222 227 230 229 224 212 198 197 212 207 193 195 202 194 189 188 188 190 194 202 216 235 254 267 275 281 285 292 301 306 310 315 317 320 327 335 337 338 335 327 323 320 317 316 318 318 317 318 318 317 314 310 308 307 307 308 311 314 313 308 301 301 303